Αρχική σελίδα
METAR-TAF:

METAR-TAF

Αεροδρόμια :

Colville Lake, Βορειοδυτικά Εδάφη, Καναδάς

γεωγραφικό πλάτος: 67-01-16N, γεωγραφικό μήκος: 126-07-43W, υψόμετρο: 274 μ

Παρών καιρός

Η αναφορά έγινε 11 λεπτά πριν, στις 02:00 UTC
Άνεμος 7 kt από Β/BA
Θερμοκρασία -29°C
Υγρασία 68%
Πίεση 1012 hPa
Ορατότητα: 4.8 χλμ
Νεφοσκεπής σε ύψος 4200 πόδια
Ασθενές χιόνι

METAR: CYVL 270200Z AUTO 02007KT 3SM -SN OVC042 M29/M33 A2987 RMK SLP162

Χρόνος: 19:11 (02:11 UTC)


TAF: λείπει

Μετεωρολογικές αναφορές και προγνώσεις για περισσότερα από 4000 αεροδρόμια (δελτία METAR και TAF).

Οι διαθέσιμοι σταθμοί απεικονίζονται στο χάρτη με κίτρινες και κόκκινες κουκκίδες.

Μετακινήστε το ποντίκι πάνω από τις κουκκίδες για να δείτε το όνομα του σταθμού.

Στη συνέχεια, κάντε κλικ για να δείτε τις μετεωρολογικές αναφορές και τις προγνώσεις καιρού.

Για να αλλάξετε το χάρτη: κάντε κλικ στα πράσινα κουμπιά με τον μαύρο σταυρό για να ζουμάρετε, στο πράσινο κουμπί με την παύλα για να αφαιρέσετε το ζουμ ή στα πράσινα βέλη για να αντιπαραβάλλετε χάρτες.


METAR-TAF: